Location: Unspecified
(0.0000°N, 0.0000°E)
Time: 09:44:57
(UTC+00:00)

Hubble Space Telescope - Pass Details

Date: 19 June 2017
Orbit: 537 x 541 km, 28.5° (Epoch: 16 October)

Event Time Altitude Azimuth Distance (km) Brightness Sun altitude
Exits shadow 04:19:44 20° 154° (SSE) 1,288 2.7 -23.2°
Maximum altitude 04:19:53 20° 151° (SSE) 1,287 2.7 -23.2°
Drops below altitude 10° 04:22:56 10° 104° (ESE) 1,790 4.1 -22.5°
Sets 04:25:40 0° 86° (E) 2,680 5.5 -21.8°
